sat.trackr.live / text

‹ back to catalog

YAOGAN-32 02A

NORAD 49383 · 2021-099A

PAYLOAD ACTIVE UNKNOWN

§ Identity

Operator
Country
PRC
Launch date
2021-11-03
Launch site
JSC
Launch vehicle
Mass (kg)
RCS (m²)

External: N2YO · Heavens-Above · Gunter

§ Orbital elements

Epoch: 2026-09-08T22:45:41.283072Z

Period
98.34 min
Inclination
98.2588°
Eccentricity
0.0000843
Mean motion
14.64308261 rev/d
Perigee alt
678.7 km
Apogee alt
679.9 km
Semi-major
7,057.4 km
B*
1.0418e-4
RAAN
25.9223°
Arg perigee
31.0351°
Mean anomaly
329.0901°
Rev number
25,862

§ Raw data

YAOGAN-32 02A1 49383U 21099A   26251.94839448  .00000501  00000+0  10418-3 0  99952 49383  98.2588  25.9223 0000843  31.0351 329.0901 14.64308261258622

JSON: /api/v1/satellites/49383 · /tle

For live sub-satellite position, see the globe view (requires WebGL).

§ Visibility from observer

Set your observer location to see the next 7 days of passes ≥ 10°. The values pass through the URL so the page stays shareable.

No JS? Fill the form by hand. The geolocation button needs JavaScript.